This demonstration page uses our WeatherBlox Daily Observations layout. Learn more.

Left ArrowRight Arrow

Hourly Observations for March 17, 2021

Temp ( °F °C ) Dew Point ( °F °C ) Humidity (%) Winds ( mph kmh ) Pressure ( in mb ) Visibility ( mi km ) Precip ( " mm )
12:22 am 00:22 Cloudy with Mist and Fog 50 10 49 9.4 96 96 NNE 5 7 30.04 1017 3 4 0.00 0.00
12:32 am 00:32 Cloudy with Mist and Fog 50 10 49 9.4 96 96 Calm 30.06 1018 3 4 0.00 0.00
12:53 am 00:53 Cloudy with Mist and Fog 50 10 49 9.4 96 96 NE 3 6 30.03 1017 2 3 0.00 0.00
1:53 am 01:53 Cloudy with Mist and Fog 50 10 49 9.4 96 96 Calm 30.04 1017 1 2 0.00 0.00
2:53 am 02:53 Cloudy with Mist and Fog 50 10 49 9.4 96 96 NE 6 9 30.01 1016 1 2 0.00 0.00
3:16 am 03:16 Cloudy with Mist and Fog 50 10 50 10 100 100 E 3 6 30.02 1017 3 5 0.00 0.00
3:48 am 03:48 Cloudy with Mist and Fog 50 10 48 9 94 94 NE 5 7 30.02 1017 3 4 0.00 0.00
3:53 am 03:53 Cloudy with Mist and Fog 50 10 49 9.4 96 96 NE 5 7 30.01 1016 2 3 0.00 0.00
4:02 am 04:02 Cloudy with Mist and Fog 50 10 50 10 100 100 ENE 5 7 30.01 1016 1 1 0.00 0.00
4:15 am 04:15 Mostly Cloudy with Fog 50 10 50 10 100 100 NE 6 9 30.01 1016 1 1 0.00 0.00
4:38 am 04:38 Mostly Cloudy with Mist and Fog 50 10 50 10 100 100 Calm 30.02 1017 1 1 0.00 0.00
4:53 am 04:53 Cloudy with Mist and Fog 50 10 50 10 100 100 NE 3 6 30.00 1016 1 2 0.00 0.00
5:10 am 05:10 Cloudy with Mist and Fog 50 10 50 10 100 100 Calm 30.04 1017 3 5 0.00 0.00
5:27 am 05:27 Cloudy with Mist and Fog 50 10 50 10 100 100 Calm 30.03 1017 2 3 0.00 0.00
5:53 am 05:53 Cloudy with Mist and Fog 51 10.6 50 10 96 96 ENE 6 9 30.01 1016 2 3 0.00 0.00
6:22 am 06:22 Cloudy with Mist and Fog 51 10.6 50 10 96 96 ENE 5 7 30.03 1017 3 5 0.00 0.00
6:43 am 06:43 Cloudy with Mist and Fog 51 10.6 50 10 96 96 NE 3 6 30.03 1017 2 3 0.00 0.00
6:51 am 06:51 Cloudy with Mist and Fog 52 11 50 10 94 94 NE 3 6 30.03 1017 2 3 0.00 0.00
6:53 am 06:53 Cloudy with Mist and Fog 51 10.6 50 10 96 96 Calm 30.02 1017 2 2 0.00 0.00
7:53 am 07:53 Cloudy with Mist and Fog 51 10.6 51 10.6 100 100 Calm 30.03 1017 2 2 0.00 0.00
8:53 am 08:53 Cloudy with Mist and Fog 51 10.6 51 10.6 100 100 E 5 7 30.06 1018 1 2 0.00 0.00
9:53 am 09:53 Cloudy with Light Rain 51 10.6 51 10.6 100 100 E 5 7 30.05 1018 2 2 0.01 0.25
10:10 am 10:10 Cloudy with Light Rain 52 11.1 51 10.6 97 97 E 3 6 30.07 1018 2 2 0.00 0.00
10:53 am 10:53 Cloudy with Light Rain 53 11.7 52 11.1 96 96 ENE 9 15 30.03 1017 2 2 0.02 0.51
11:00 am 11:00 Cloudy with Light Rain 53 11.7 51 10.6 93 93 E 8 13 30.03 1017 3 5 0.00 0.00
11:28 am 11:28 Cloudy with Mist and Fog 54 12.2 53 11.7 97 97 Calm 30.04 1017 3 5 0.00 0.00
11:53 am 11:53 Cloudy with Mist and Fog 56 13.3 53 11.7 90 90 VRB 7 11 30.02 1017 3 5 0.00 0.00
12:53 pm 12:53 Cloudy 56 13.3 54 12.2 93 93 SE 3 6 30.04 1017 10 16 0.00 0.00
1:53 pm 13:53 Cloudy 57 13.9 55 12.8 93 93 SE 5 7 30.02 1017 9 14 0.00 0.00
2:14 pm 14:14 Cloudy with Rain 57 13.9 55 12.8 93 93 SW 3 6 30.03 1017 2 2 0.06 1.52
2:22 pm 14:22 Cloudy with Light Rain 57 13.9 56 13.3 96 96 Calm 30.03 1017 1 1 0.12 3.05
2:26 pm 14:26 Cloudy with Light Rain 57 13.9 56 13.3 96 96 E 3 6 30.02 1017 3 4 0.12 3.05
2:33 pm 14:33 Cloudy 58 14.4 55 12.8 90 90 E 6 9 30.01 1016 10 16 0.12 3.05
2:53 pm 14:53 Cloudy 58 14.4 56 13.3 93 93 E 6 9 30.01 1016 10 16 0.12 3.05
3:53 pm 15:53 Cloudy 58 14.4 56 13.3 93 93 E 10 17 29.96 1015 9 14 0.01 0.25
4:53 pm 16:53 Cloudy 58 14.4 56 13.3 93 93 E 7 11 29.95 1014 10 16 0.00 0.00
5:53 pm 17:53 Cloudy with Light Rain 57 13.9 56 13.3 96 96 E 6 9 29.94 1014 10 16 0.06 1.52
6:20 pm 18:20 Cloudy with Light Rain 57 13.9 55 12.8 93 93 E 7 11 29.93 1013 10 16 0.01 0.25
6:53 pm 18:53 Cloudy with Light Rain 57 13.9 55 12.8 93 93 E 9 15 29.91 1013 10 16 0.02 0.51
7:53 pm 19:53 Cloudy with Mist and Fog 56 13.3 55 12.8 97 97 VRB 6 9 29.91 1013 4 6 0.00 0.00
8:53 pm 20:53 Cloudy with Mist and Fog 57 13.9 56 13.3 96 96 E 7 11 29.93 1014 3 5 0.00 0.00
9:25 pm 21:25 Cloudy with Mist and Fog 57 13.9 56 13.3 96 96 E 8 13 29.93 1013 3 4 0.00 0.00
9:42 pm 21:42 Cloudy with Mist and Fog 57 13.9 56 13.3 96 96 E 8 13 29.93 1013 3 5 0.00 0.00
9:53 pm 21:53 Cloudy with Mist and Fog 57 13.9 56 13.3 96 96 E 8 13 29.91 1013 3 5 0.00 0.00
10:53 pm 22:53 Cloudy 57 13.9 56 13.3 96 96 ESE 8 13 29.91 1013 7 11 0.00 0.00
11:53 pm 23:53 Cloudy with Mist and Fog 57 13.9 56 13.3 96 96 E 8 13 29.88 1012 4 6 0.00 0.00

Powered by AerisWeather